User: anonymous   Login
Location: Pine Mountain Observatory
(43.7910°N, 120.9377°W)
Time: 21:41:25
(UTC-07:00)
Language:

Cosmos 1076 Rocket - Orbit

View from above orbital plane
View from above orbital plane
View from above satellite
View from above satellite

Ground track
Ground track

The orbit data is extracted from the following two-line orbital elements,

1 11267U 79011B   14304.00130693  .00000771  00000-0  80608-4 0  5682
2 11267 082.5277 055.7173 0017512 177.3652 234.6490 14.88273482932622
Epoch (UTC): 31 October 2014 00:01:52
Eccentricity: 0.0017512
inclination: 82.5277°
perigee height: 591 km
apogee height: 615 km
right ascension of ascending node: 55.7173°
argument of perigee: 177.3652°
revolutions per day: 14.88273482
mean anomaly at epoch: 234.6490°
orbit number at epoch: 93262

The dashed part of the orbit path shows where the satellite is in the earth's shadow,  

DLR